GW7292 Weather Reports


time (UTC)temp
C
wind
direction
speed
KPH
gust
KPH
rain 1hr
cm
rain 24hr
cm
rain mn
cm
humidity
%
barometer
mb
20260504230947 23 264 0.0 0.0 0.00 0.00 0.00 40 1014.3
20260504230444 23 264 0.0 0.0 0.00 0.00 0.00 39 1014.3
20260504225943 24 204 0.0 0.0 0.00 0.00 0.00 40 1014.3
20260504225439 24 83 0.0 1.6 0.00 0.00 0.00 38 1014.6
20260504224936 24 109 0.0 0.0 0.00 0.00 0.00 37 1014.6
20260504224432 25 29 1.6 6.4 0.00 0.00 0.00 37 1014.6
20260504223930 25 162 1.6 3.2 0.00 0.00 0.00 36 1014.6
20260504223425 25 157 0.0 0.0 0.00 0.00 0.00 35 1014.6
20260504222921 26 157 0.0 0.0 0.00 0.00 0.00 34 1014.6
20260504222419 26 235 0.0 3.2 0.00 0.00 0.00 35 1014.6
20260504221917 26 280 4.8 8.0 0.00 0.00 0.00 35 1014.6
20260504221413 26 168 3.2 12.9 0.00 0.00 0.00 33 1014.6
20260504220911 26 351 1.6 6.4 0.00 0.00 0.00 34 1014.6
20260504220407 26 160 1.6 6.4 0.00 0.00 0.00 33 1014.6
20260504215904 26 140 4.8 8.0 0.00 0.00 0.00 33 1015.0
20260504215401 26 67 1.6 6.4 0.00 0.00 0.00 36 1014.6
20260504214857 26 117 0.0 3.2 0.00 0.00 0.00 34 1014.6
20260504214354 26 241 0.0 0.0 0.00 0.00 0.00 36 1014.6
20260504213851 26 125 0.0 3.2 0.00 0.00 0.00 35 1015.0
20260504213346 26 248 1.6 3.2 0.00 0.00 0.00 33 1015.0
20260504212844 26 248 0.0 4.8 0.00 0.00 0.00 32 1014.6
20260504212340 26 239 1.6 4.8 0.00 0.00 0.00 33 1015.0
20260504211838 26 241 0.0 0.0 0.00 0.00 0.00 34 1015.0
20260504211334 26 241 0.0 0.0 0.00 0.00 0.00 33 1015.0
20260504210831 27 162 0.0 3.2 0.00 0.00 0.00 33 1015.0
20260504210328 27 187 3.2 8.0 0.00 0.00 0.00 34 1015.0
20260504205825 27 226 0.0 0.0 0.00 0.00 0.00 33 1015.0
20260504205323 26 303 0.0 0.0 0.00 0.00 0.00 33 1015.0
20260504204821 27 313 3.2 9.7 0.00 0.00 0.00 34 1015.0
20260504204319 27 148 1.6 4.8 0.00 0.00 0.00 34 1015.0
20260504203818 27 118 3.2 6.4 0.00 0.00 0.00 34 1015.0
20260504203315 27 193 0.0 3.2 0.00 0.00 0.00 36 1015.0
20260504202810 26 46 0.0 0.0 0.00 0.00 0.00 34 1015.3
20260504202308 26 330 1.6 4.8 0.00 0.00 0.00 34 1015.0
20260504201804 27 198 4.8 9.7 0.00 0.00 0.00 34 1015.3
20260504185627 25 113 0.0 8.0 0.00 0.00 0.00 38 1016.4
20260504185124 25 113 0.0 8.0 0.00 0.00 0.00 38 1016.4
20260504184620 25 204 3.2 9.7 0.00 0.00 0.00 37 1016.4
20260504184115 25 263 1.6 6.4 0.00 0.00 0.00 37 1016.8
20260504183613 26 273 3.2 6.4 0.00 0.00 0.00 36 1016.8
20260504183110 26 182 1.6 6.4 0.00 0.00 0.00 34 1016.8
20260504182607 26 231 3.2 6.4 0.00 0.00 0.00 37 1016.8
20260504182105 26 134 0.0 0.0 0.00 0.00 0.00 37 1016.8
20260504181602 26 135 1.6 4.8 0.00 0.00 0.00 38 1016.8
20260504181100 26 128 0.0 0.0 0.00 0.00 0.00 38 1017.1
20260504180558 26 111 0.0 0.0 0.00 0.00 0.00 35 1016.8
20260504180057 26 130 1.6 4.8 0.00 0.00 0.00 37 1017.1
20260504175554 26 310 0.0 0.0 0.00 0.00 0.00 38 1017.1
20260504175050 26 261 0.0 0.0 0.00 0.00 0.00 38 1017.1
20260504174549 26 311 1.6 6.4 0.00 0.00 0.00 38 1017.4
20260504174045 26 155 1.6 4.8 0.00 0.00 0.00 38 1017.4
20260504173542 26 154 0.0 0.0 0.00 0.00 0.00 38 1017.4
20260504173040 26 121 1.6 4.8 0.00 0.00 0.00 38 1017.4
20260504172535 25 93 0.0 0.0 0.00 0.00 0.00 38 1017.4
20260504172032 25 125 3.2 9.7 0.00 0.00 0.00 38 1017.4
20260504171529 26 109 1.6 6.4 0.00 0.00 0.00 38 1017.4
20260504171026 25 336 0.0 0.0 0.00 0.00 0.00 40 1017.4
20260504170522 25 342 0.0 3.2 0.00 0.00 0.00 39 1017.8
20260504160442 24 283 3.2 6.4 0.00 0.00 0.00 43 1018.4
20260504150906 21 84 4.8 6.4 0.00 0.00 0.00 48 1018.4
20260504150403 21 221 3.2 4.8 0.00 0.00 0.00 48 1018.4
20260504141333 20 266 0.0 0.0 0.00 0.00 0.00 53 1019.1
20260504140829 19 266 0.0 0.0 0.00 0.00 0.00 53 1019.1
20260504140325 19 119 0.0 4.8 0.00 0.00 0.00 54 1019.1
20260504130754 14 59 0.0 0.0 0.00 0.00 0.00 83 1019.5
20260504130250 14 59 0.0 0.0 0.00 0.00 0.00 83 1019.5
20260504120214 8 59 0.0 0.0 0.00 0.00 0.00 98 1019.1
20260504110641 6 59 0.0 0.0 0.00 0.00 0.00 100 1018.4
20260504110137 6 59 0.0 0.0 0.00 0.00 0.00 100 1018.4
20260504100603 7 59 0.0 0.0 0.00 0.00 0.00 99 1018.4
20260504081956 7 59 0.0 0.0 0.00 0.00 0.00 98 1018.4
20260504081454 7 59 0.0 0.0 0.00 0.00 0.00 98 1018.4
20260504080949 7 59 0.0 0.0 0.00 0.00 0.00 98 1018.4
20260504080446 7 59 0.0 0.0 0.00 0.00 0.00 98 1018.4
20260504050259 8 59 0.0 0.0 0.00 0.00 0.00 96 1019.5
20260504045757 8 59 0.0 0.0 0.00 0.00 0.00 95 1019.5
20260504045256 8 59 0.0 0.0 0.00 0.00 0.00 95 1019.5
20260504044754 8 59 0.0 0.0 0.00 0.00 0.00 94 1019.8
20260504044252 8 59 0.0 0.0 0.00 0.00 0.00 96 1019.8
20260504043748 8 59 0.0 0.0 0.00 0.00 0.00 95 1019.8
20260504043245 8 59 0.0 0.0 0.00 0.00 0.00 95 1019.8
20260504042743 8 59 0.0 0.0 0.00 0.00 0.00 94 1019.8
20260504042239 9 59 0.0 0.0 0.00 0.00 0.00 93 1020.1
20260504041736 9 59 0.0 0.0 0.00 0.00 0.00 94 1020.1
20260504041232 9 59 0.0 0.0 0.00 0.00 0.00 94 1020.1
20260504040728 9 59 0.0 0.0 0.00 0.00 0.00 93 1019.8
20260504040226 9 59 0.0 0.0 0.00 0.00 0.00 93 1020.1
20260504035721 9 59 0.0 0.0 0.00 0.00 0.00 94 1019.8
20260504035219 9 59 0.0 0.0 0.00 0.00 0.00 94 1020.1
20260504034716 9 59 0.0 0.0 0.00 0.00 0.00 93 1020.1
20260504034214 9 59 0.0 0.0 0.00 0.00 0.00 93 1020.1
20260504033711 10 59 0.0 0.0 0.00 0.00 0.00 93 1020.1
20260504033208 10 59 0.0 0.0 0.00 0.00 0.00 92 1020.1
20260504032705 10 59 0.0 0.0 0.00 0.00 0.00 92 1020.1
20260504032202 10 59 0.0 0.0 0.00 0.00 0.00 91 1020.1
20260504031659 10 59 0.0 0.0 0.00 0.00 0.00 91 1020.1
20260504031155 10 59 0.0 0.0 0.00 0.00 0.00 92 1020.1
20260504030652 10 59 0.0 0.0 0.00 0.00 0.00 91 1020.1
20260504030149 10 59 0.0 0.0 0.00 0.00 0.00 91 1020.5
20260504025646 10 59 0.0 0.0 0.00 0.00 0.00 90 1020.1
20260504025142 10 59 0.0 0.0 0.00 0.00 0.00 90 1020.1
20260504024640 10 59 0.0 0.0 0.00 0.00 0.00 90 1020.1
20260504024136 10 59 0.0 0.0 0.00 0.00 0.00 89 1020.1
20260504023633 10 59 0.0 0.0 0.00 0.00 0.00 89 1020.1
20260504023129 10 59 0.0 0.0 0.00 0.00 0.00 88 1020.1
20260504022626 11 59 0.0 0.0 0.00 0.00 0.00 88 1020.1
20260504022121 11 59 0.0 0.0 0.00 0.00 0.00 87 1020.1
20260504021620 11 59 0.0 0.0 0.00 0.00 0.00 85 1020.1
20260504021116 11 59 0.0 0.0 0.00 0.00 0.00 84 1019.8
20260504020613 11 59 0.0 0.0 0.00 0.00 0.00 84 1019.8
20260504020109 11 59 0.0 0.0 0.00 0.00 0.00 83 1019.8
20260504015606 11 59 0.0 0.0 0.00 0.00 0.00 83 1019.8
20260504015102 12 59 0.0 0.0 0.00 0.00 0.00 83 1019.8
20260504014558 12 59 0.0 0.0 0.00 0.00 0.00 82 1019.8
20260504014055 12 59 0.0 0.0 0.00 0.00 0.00 80 1019.5
20260504013553 12 59 0.0 0.0 0.00 0.00 0.00 79 1019.8
20260504013049 12 59 0.0 0.0 0.00 0.00 0.00 78 1019.8
20260504012547 12 59 0.0 0.0 0.00 0.00 0.00 78 1019.5
20260504012045 13 59 0.0 0.0 0.00 0.00 0.00 77 1019.5
20260504011541 13 59 0.0 0.0 0.00 0.00 0.00 76 1019.5
20260504011037 13 59 0.0 0.0 0.00 0.00 0.00 75 1019.5
20260504010533 13 59 0.0 0.0 0.00 0.00 0.00 74 1019.5
20260504010029 13 59 0.0 0.0 0.00 0.00 0.00 74 1019.5
20260504005526 14 59 0.0 0.0 0.00 0.00 0.00 72 1019.5
20260504005024 14 59 0.0 0.0 0.00 0.00 0.00 70 1019.5
20260504004522 15 59 0.0 0.0 0.00 0.00 0.00 66 1019.5
20260504004018 15 59 0.0 0.0 0.00 0.00 0.00 67 1019.5
20260504003514 15 59 0.0 0.0 0.00 0.00 0.00 66 1019.1
20260504003011 15 59 0.0 0.0 0.00 0.00 0.00 58 1019.5
20260504002508 16 59 0.0 0.0 0.00 0.00 0.00 59 1019.1
20260504002006 16 59 0.0 0.0 0.00 0.00 0.00 60 1019.1
20260504001503 16 59 0.0 0.0 0.00 0.00 0.00 54 1019.1
20260504000959 16 59 0.0 0.0 0.00 0.00 0.00 54 1019.1
20260504000457 17 59 0.0 0.0 0.00 0.00 0.00 56 1019.1
20260503235954 17 59 0.0 0.0 0.00 0.00 0.00 52 1019.1
20260503235452 17 59 0.0 0.0 0.00 0.00 0.00 51 1019.1
20260503234948 17 59 0.0 0.0 0.00 0.00 0.00 54 1019.1
20260503234446 18 59 0.0 0.0 0.00 0.00 0.00 49 1019.1
20260503233944 18 59 0.0 0.0 0.00 0.00 0.00 48 1019.1
20260503233440 18 166 0.0 0.0 0.00 0.00 0.00 52 1019.1
20260503232937 18 166 0.0 0.0 0.00 0.00 0.00 50 1019.1
20260503232434 19 166 0.0 0.0 0.00 0.00 0.00 47 1018.8
20260503231932 19 166 0.0 0.0 0.00 0.00 0.00 44 1019.1